K4FB Weather Reports


time (UTC)temp
C
wind
direction
speed
KPH
gust
KPH
rain 1hr
cm
rain 24hr
cm
rain mn
cm
humidity
%
barometer
mb
20260508065504 19 271 0.0 0.0 0.00 0.00 0.00 91 1015.1
20260508065006 19 271 0.0 0.0 0.00 0.00 0.00 90 1014.9
20260508064512 19 271 0.0 0.0 0.00 0.00 0.00 90 1015.0
20260508064005 19 271 0.0 0.0 0.00 0.00 0.00 90 1014.9
20260508063508 19 271 0.0 0.0 0.00 0.00 0.00 89 1015.1
20260508062507 19 271 0.0 0.0 0.00 0.00 0.00 88 1015.1
20260508062007 19 271 0.0 0.0 0.00 0.00 0.00 88 1015.2
20260508061522 19 271 0.0 0.0 0.00 0.00 0.00 88 1015.1
20260508061004 20 271 0.0 0.0 0.00 0.00 0.00 87 1015.4
20260508060508 20 271 0.0 0.0 0.00 0.00 0.00 88 1015.4
20260508060026 20 271 0.0 0.0 0.00 0.00 0.00 87 1015.4
20260508055503 20 271 0.0 0.0 0.00 0.00 0.00 86 1015.3
20260508054510 20 271 0.0 0.0 0.00 0.00 0.00 85 1015.4
20260508054004 20 271 0.0 0.0 0.00 0.00 0.00 85 1015.5
20260508053507 20 271 0.0 0.0 0.00 0.00 0.00 85 1015.6
20260508053014 20 271 0.0 0.0 0.00 0.00 0.00 84 1015.7
20260508052505 21 271 0.0 0.0 0.00 0.00 0.00 84 1015.6
20260508052007 21 271 0.0 0.0 0.00 0.00 0.00 83 1015.5
20260508051521 21 271 0.0 0.0 0.00 0.00 0.00 83 1015.6
20260508051008 21 271 0.0 0.0 0.00 0.00 0.00 82 1015.6
20260508050508 21 271 0.0 0.0 0.00 0.00 0.00 81 1015.6
20260508045008 22 271 0.0 0.0 0.00 0.00 0.00 80 1015.7
20260508044523 22 271 0.0 0.0 0.00 0.00 0.00 79 1015.6
20260508044006 22 271 0.0 1.6 0.00 0.00 0.00 79 1015.6
20260508043014 22 270 0.0 4.8 0.00 0.00 0.00 78 1015.7
20260508042505 22 267 0.0 4.8 0.00 0.00 0.00 77 1015.8
20260508042009 22 263 1.6 4.8 0.00 0.00 0.00 77 1015.8
20260508041512 22 259 0.0 9.7 0.00 0.00 0.00 76 1015.7
20260508041007 23 263 1.6 9.7 0.00 0.00 0.00 76 1015.6
20260508040508 23 270 1.6 6.4 0.00 0.00 0.00 75 1015.7
20260508040021 23 241 1.6 11.3 0.00 0.00 0.00 75 1015.8
20260508035507 23 267 1.6 11.3 0.00 0.00 0.00 75 1015.9
20260508035010 23 278 3.2 6.4 0.00 0.00 0.00 74 1015.9
20260508034008 23 275 1.6 4.8 0.00 0.00 0.00 73 1015.6
20260508033514 23 286 0.0 4.8 0.00 0.00 0.00 73 1015.7
20260508033012 23 287 0.0 4.8 0.00 0.00 0.00 72 1015.7
20260508032512 23 290 1.6 9.7 0.00 0.00 0.00 72 1015.7
20260508032008 23 273 0.0 9.7 0.00 0.00 0.00 72 1015.6
20260508031511 23 283 1.6 9.7 0.00 0.00 0.00 72 1015.5
20260508031005 23 275 1.6 8.0 0.00 0.00 0.00 72 1015.4
20260508030508 23 253 1.6 6.4 0.00 0.00 0.00 72 1015.4
20260508030016 23 298 1.6 9.7 0.00 0.00 0.00 72 1015.5
20260508025009 24 275 1.6 9.7 0.00 0.00 0.00 71 1015.4
20260508024523 24 303 1.6 8.0 0.00 0.00 0.00 71 1015.4
20260508024008 24 304 1.6 6.4 0.00 0.00 0.00 70 1015.5
20260508023507 24 301 1.6 6.4 0.00 0.00 0.00 70 1015.5
20260508023024 24 284 0.0 4.8 0.00 0.00 0.00 69 1015.5
20260508022510 24 284 1.6 6.4 0.00 0.00 0.00 69 1015.5
20260508021522 25 257 3.2 11.3 0.00 0.00 0.00 69 1015.3
20260508020509 25 240 4.8 11.3 0.00 0.00 0.00 67 1015.3
20260508020017 25 269 3.2 11.3 0.00 0.00 0.00 66 1015.3
20260508015504 25 255 3.2 11.3 0.00 0.00 0.00 67 1015.2
20260508015007 25 272 4.8 12.9 0.00 0.00 0.00 66 1015.1
20260508014515 25 261 4.8 12.9 0.00 0.00 0.00 66 1015.1
20260508014009 25 269 1.6 11.3 0.00 0.00 0.00 66 1015.2
20260508013507 25 263 1.6 9.7 0.00 0.00 0.00 65 1015.2
20260508013023 25 271 3.2 6.4 0.00 0.00 0.00 65 1015.2
20260508012508 25 273 1.6 6.4 0.00 0.00 0.00 63 1015.0
20260508012012 25 253 0.0 6.4 0.00 0.00 0.00 62 1014.9
20260508011537 26 248 1.6 6.4 0.00 0.00 0.00 61 1015.0
20260508011005 26 255 1.6 6.4 0.00 0.00 0.00 61 1015.1
20260508005504 26 279 3.2 11.3 0.00 0.00 0.00 57 1014.8
20260508004526 26 253 4.8 12.9 0.00 0.00 0.00 56 1014.9
20260508004006 27 284 3.2 17.7 0.00 0.00 0.00 56 1014.8
20260508003506 27 258 4.8 17.7 0.00 0.00 0.00 56 1014.7
20260508003019 27 269 4.8 16.1 0.00 0.00 0.00 56 1014.7
20260508002508 27 241 6.4 14.5 0.00 0.00 0.00 54 1014.8
20260508002009 27 258 4.8 12.9 0.00 0.00 0.00 52 1014.7
20260508001519 27 274 6.4 14.5 0.00 0.00 0.00 50 1014.7
20260508001007 28 257 4.8 16.1 0.00 0.00 0.00 50 1014.6
20260508000514 28 264 8.0 16.1 0.00 0.00 0.00 49 1014.6
20260508000025 28 221 6.4 16.1 0.00 0.00 0.00 47 1014.6
20260507235508 28 226 6.4 16.1 0.00 0.00 0.00 46 1014.5
20260507235010 28 205 6.4 16.1 0.00 0.00 0.00 46 1014.7
20260507234525 29 257 6.4 17.7 0.00 0.00 0.00 45 1014.6
20260507234007 29 246 4.8 17.7 0.00 0.00 0.00 45 1014.6
20260507233505 29 242 4.8 16.1 0.00 0.00 0.00 44 1014.6
20260507233009 30 249 3.2 19.3 0.00 0.00 0.00 43 1014.5
20260507232502 30 232 9.7 19.3 0.00 0.00 0.00 42 1014.5
20260507232002 30 254 11.3 22.5 0.00 0.00 0.00 41 1014.4
20260507231506 30 227 11.3 22.5 0.00 0.00 0.00 40 1014.4
20260507231002 31 242 9.7 20.9 0.00 0.00 0.00 39 1014.3
20260507230506 31 253 11.3 19.3 0.00 0.00 0.00 39 1014.3
20260507230005 32 197 9.7 17.7 0.00 0.00 0.00 38 1014.3
20260507225506 32 240 11.3 19.3 0.00 0.00 0.00 38 1014.3
20260507225005 33 258 9.7 22.5 0.00 0.00 0.00 37 1014.3
20260507224512 33 223 9.7 22.5 0.00 0.00 0.00 38 1014.3
20260507224004 33 225 11.3 17.7 0.00 0.00 0.00 37 1014.2
20260507223503 33 238 9.7 22.5 0.00 0.00 0.00 37 1014.2
20260507223018 34 250 11.3 22.5 0.00 0.00 0.00 37 1014.1
20260507222506 34 237 11.3 20.9 0.00 0.00 0.00 37 1014.2
20260507222003 35 248 8.0 20.9 0.00 0.00 0.00 37 1014.1
20260507221506 35 270 9.7 19.3 0.00 0.00 0.00 36 1014.1
20260507221003 35 285 8.0 19.3 0.00 0.00 0.00 37 1014.1
20260507220502 35 275 6.4 19.3 0.00 0.00 0.00 37 1014.1
20260507220007 35 268 9.7 19.3 0.00 0.00 0.00 36 1014.1
20260507215503 35 235 3.2 17.7 0.00 0.00 0.00 36 1014.2
20260507214506 35 317 8.0 22.5 0.00 0.00 0.00 35 1014.3
20260507214005 35 220 11.3 22.5 0.00 0.00 0.00 35 1014.2
20260507213506 35 257 6.4 16.1 0.00 0.00 0.00 36 1014.2
20260507213006 35 251 6.4 22.5 0.00 0.00 0.00 32 1014.2
20260507212009 36 270 8.0 20.9 0.00 0.00 0.00 34 1014.3
20260507211519 36 308 8.0 22.5 0.00 0.00 0.00 31 1014.4
20260507211004 36 254 9.7 22.5 0.00 0.00 0.00 30 1014.5
20260507210509 36 294 3.2 14.5 0.00 0.00 0.00 28 1014.4
20260507210005 36 312 1.6 22.5 0.00 0.00 0.00 25 1014.5
20260507205503 36 249 4.8 22.5 0.00 0.00 0.00 24 1014.6
20260507205002 36 232 8.0 16.1 0.00 0.00 0.00 22 1014.4
20260507204510 36 205 8.0 22.5 0.00 0.00 0.00 22 1014.5
20260507204007 36 308 8.0 22.5 0.00 0.00 0.00 18 1014.6
20260507203013 36 254 12.9 22.5 0.00 0.00 0.00 20 1014.8
20260507202503 36 264 11.3 27.4 0.00 0.00 0.00 23 1014.7
20260507202003 36 286 16.1 27.4 0.00 0.00 0.00 22 1014.7
20260507201008 36 262 12.9 25.7 0.00 0.00 0.00 24 1014.6
20260507200508 36 301 12.9 24.1 0.00 0.00 0.00 28 1014.7
20260507200010 36 352 12.9 24.1 0.00 0.00 0.00 26 1014.7
20260507195504 36 314 9.7 30.6 0.00 0.00 0.00 30 1014.6
20260507195008 36 259 11.3 29.0 0.00 0.00 0.00 32 1014.6
20260507194511 36 236 6.4 25.7 0.00 0.00 0.00 34 1014.7
20260507194003 36 254 11.3 25.7 0.00 0.00 0.00 32 1014.9
20260507193505 36 253 14.5 25.7 0.00 0.00 0.00 33 1015.0
20260507193015 36 209 11.3 25.7 0.00 0.00 0.00 35 1014.9
20260507192504 36 238 9.7 25.7 0.00 0.00 0.00 35 1014.9
20260507192009 36 221 11.3 24.1 0.00 0.00 0.00 36 1015.0
20260507191514 36 238 12.9 24.1 0.00 0.00 0.00 36 1015.1
20260507191007 36 160 3.2 20.9 0.00 0.00 0.00 41 1015.2
20260507190504 36 215 14.5 20.9 0.00 0.00 0.00 36 1015.3
20260507190016 36 196 11.3 22.5 0.00 0.00 0.00 36 1015.3
20260507185506 36 243 8.0 25.7 0.00 0.00 0.00 39 1015.4
20260507185005 36 238 9.7 25.7 0.00 0.00 0.00 36 1015.5
20260507184009 36 225 9.7 22.5 0.00 0.00 0.00 39 1015.7
20260507183504 36 197 8.0 20.9 0.00 0.00 0.00 42 1015.8
20260507183024 36 251 12.9 20.9 0.00 0.00 0.00 39 1015.8
20260507182505 35 221 9.7 19.3 0.00 0.00 0.00 43 1015.9
20260507182004 35 233 9.7 25.7 0.00 0.00 0.00 42 1016.0
20260507181508 35 200 6.4 25.7 0.00 0.00 0.00 42 1016.1
20260507181006 35 246 16.1 25.7 0.00 0.00 0.00 41 1016.1
20260507180507 35 183 12.9 24.1 0.00 0.00 0.00 45 1016.2
20260507180029 35 225 9.7 25.7 0.00 0.00 0.00 44 1016.3
20260507175507 34 248 12.9 29.0 0.00 0.00 0.00 44 1016.3
20260507174531 34 204 6.4 27.4 0.00 0.00 0.00 49 1016.3
20260507174004 34 194 16.1 27.4 0.00 0.00 0.00 47 1016.4
20260507173505 34 197 8.0 27.4 0.00 0.00 0.00 47 1016.4
20260507172510 34 194 14.5 25.7 0.00 0.00 0.00 47 1016.5
20260507172005 34 199 12.9 25.7 0.00 0.00 0.00 49 1016.6
20260507171512 33 197 11.3 20.9 0.00 0.00 0.00 48 1016.6
20260507171004 33 237 9.7 27.4 0.00 0.00 0.00 49 1016.7
20260507170507 33 226 17.7 27.4 0.00 0.00 0.00 49 1016.7
20260507170021 33 260 12.9 24.1 0.00 0.00 0.00 51 1016.8
20260507165506 33 258 8.0 22.5 0.00 0.00 0.00 49 1016.8
20260507165004 33 203 12.9 25.7 0.00 0.00 0.00 49 1017.0
20260507164513 33 226 17.7 25.7 0.00 0.00 0.00 49 1016.8
20260507163509 33 186 11.3 25.7 0.00 0.00 0.00 53 1017.0
20260507163022 33 255 9.7 25.7 0.00 0.00 0.00 50 1016.9
20260507162506 33 266 9.7 24.1 0.00 0.00 0.00 52 1016.9
20260507162009 33 252 14.5 24.1 0.00 0.00 0.00 54 1017.0
20260507161538 32 214 9.7 22.5 0.00 0.00 0.00 53 1017.1
20260507161007 32 259 9.7 19.3 0.00 0.00 0.00 53 1017.1
20260507160509 32 289 8.0 20.9 0.00 0.00 0.00 52 1017.1
20260507160016 32 219 12.9 20.9 0.00 0.00 0.00 53 1017.2
20260507155507 32 184 6.4 24.1 0.00 0.00 0.00 59 1017.3
20260507155007 32 190 14.5 24.1 0.00 0.00 0.00 58 1017.3
20260507154519 32 229 11.3 22.5 0.00 0.00 0.00 58 1017.3
20260507154008 32 196 8.0 20.9 0.00 0.00 0.00 59 1017.4
20260507153504 31 215 8.0 20.9 0.00 0.00 0.00 60 1017.6
20260507152509 31 222 11.3 17.7 0.00 0.00 0.00 57 1017.4
20260507152012 31 195 8.0 22.5 0.00 0.00 0.00 57 1017.4
20260507151535 31 187 11.3 22.5 0.00 0.00 0.00 57 1017.6
20260507151007 31 199 11.3 20.9 0.00 0.00 0.00 56 1017.5
20260507150511 31 213 8.0 22.5 0.00 0.00 0.00 59 1017.5
20260507150027 31 189 11.3 25.7 0.00 0.00 0.00 57 1017.5
20260507145503 30 193 8.0 25.7 0.00 0.00 0.00 60 1017.5
20260507145007 30 214 11.3 19.3 0.00 0.00 0.00 61 1017.6
20260507144516 30 196 6.4 20.9 0.00 0.00 0.00 61 1017.7
20260507144003 30 178 9.7 20.9 0.00 0.00 0.00 60 1017.5
20260507143502 29 192 9.7 20.9 0.00 0.00 0.00 62 1017.5
20260507143003 29 200 11.3 20.9 0.00 0.00 0.00 62 1017.5
20260507142504 28 205 9.7 27.4 0.00 0.00 0.00 63 1017.5
20260507142005 28 184 11.3 27.4 0.00 0.00 0.00 62 1017.5
20260507141505 28 229 11.3 25.7 0.00 0.00 0.00 63 1017.6
20260507140505 28 198 8.0 27.4 0.00 0.00 0.00 65 1017.8
20260507140005 27 187 12.9 19.3 0.00 0.00 0.00 64 1017.6
20260507135006 27 164 8.0 19.3 0.00 0.00 0.00 64 1017.6
20260507134526 27 175 8.0 19.3 0.00 0.00 0.00 65 1017.7
20260507134003 26 199 8.0 19.3 0.00 0.00 0.00 64 1017.7
20260507133507 26 184 9.7 14.5 0.00 0.00 0.00 1017.8
20260507133014 26 182 8.0 17.7 0.00 0.00 0.00 1017.6
20260507132503 25 190 11.3 17.7 0.00 0.00 0.00 73 1017.6
20260507132003 25 215 8.0 16.1 0.00 0.00 0.00 73 1017.5
20260507131516 25 159 4.8 16.1 0.00 0.00 0.00 74 1017.4
20260507131004 24 167 6.4 16.1 0.00 0.00 0.00 76 1017.3
20260507130005 23 198 6.4 14.5 0.00 0.00 0.00 79 1017.1
20260507125505 23 167 8.0 14.5 0.00 0.00 0.00 79 1017.1
20260507124005 21 200 4.8 11.3 0.00 0.00 0.00 87 1017.0
20260507123506 21 193 6.4 11.3 0.00 0.00 0.00 87 1017.0
20260507123016 21 180 6.4 11.3 0.00 0.00 0.00 89 1017.1
20260507122505 20 176 4.8 9.7 0.00 0.00 0.00 91 1017.1
20260507121504 20 168 3.2 8.0 0.00 0.00 0.00 93 1017.1
20260507121003 20 177 3.2 8.0 0.00 0.00 0.00 93 1017.0
20260507120507 20 186 3.2 8.0 0.00 0.00 0.00 94 1017.0
20260507120008 19 198 0.0 8.0 0.00 0.00 0.00 94 1017.0
20260507115504 19 195 1.6 8.0 0.00 0.00 0.00 95 1016.9
20260507115007 19 194 4.8 8.0 0.00 0.00 0.00 95 1016.8
20260507114520 18 186 3.2 8.0 0.00 0.00 0.00 95 1016.8
20260507114003 18 138 0.0 3.2 0.00 0.00 0.00 94 1016.8
20260507113010 18 360 0.0 3.2 0.00 0.00 0.00 94 1016.6
20260507112507 18 360 0.0 1.6 0.00 0.00 0.00 94 1016.6
20260507112003 18 162 0.0 1.6 0.00 0.00 0.00 94 1016.5
20260507111519 18 161 0.0 1.6 0.00 0.00 0.00 94 1016.5
20260507111003 18 161 0.0 0.0 0.00 0.00 0.00 94 1016.6
20260507110508 18 181 0.0 0.0 0.00 0.00 0.00 94 1016.6
20260507110005 18 181 0.0 0.0 0.00 0.00 0.00 94 1016.5
20260507105504 18 181 0.0 0.0 0.00 0.00 0.00 94 1016.6
20260507105003 18 181 0.0 0.0 0.00 0.00 0.00 94 1016.5
20260507104508 18 181 0.0 0.0 0.00 0.00 0.00 94 1016.4
20260507104006 18 186 0.0 0.0 0.00 0.00 0.00 94 1016.4
20260507103504 18 186 0.0 0.0 0.00 0.00 0.00 93 1016.4
20260507103013 18 186 0.0 0.0 0.00 0.00 0.00 93 1016.4
20260507102503 18 186 0.0 0.0 0.00 0.00 0.00 93 1016.5
20260507102007 18 186 0.0 0.0 0.00 0.00 0.00 93 1016.4
20260507101521 18 186 0.0 0.0 0.00 0.00 0.00 93 1016.3
20260507101004 18 186 0.0 0.0 0.00 0.00 0.00 93 1016.3
20260507100504 19 186 0.0 0.0 0.00 0.00 0.00 93 1016.1
20260507100021 19 186 0.0 0.0 0.00 0.00 0.00 94 1016.1
20260507095507 19 186 0.0 0.0 0.00 0.00 0.00 94 1016.1
20260507095005 18 186 0.0 0.0 0.00 0.00 0.00 93 1015.8
20260507094508 19 186 0.0 0.0 0.00 0.00 0.00 93 1015.7
20260507094003 19 186 0.0 0.0 0.00 0.00 0.00 93 1015.7
20260507093503 19 186 0.0 0.0 0.00 0.00 0.00 93 1015.7
20260507093011 19 186 0.0 0.0 0.00 0.00 0.00 93 1015.8
20260507092503 19 186 0.0 0.0 0.00 0.00 0.00 93 1015.7
20260507092003 19 186 0.0 0.0 0.00 0.00 0.00 93 1015.8
20260507091508 19 186 0.0 0.0 0.00 0.00 0.00 93 1015.8
20260507091004 19 186 0.0 0.0 0.00 0.00 0.00 93 1015.9
20260507090507 19 186 0.0 0.0 0.00 0.00 0.00 93 1015.8
20260507090035 19 186 0.0 0.0 0.00 0.00 0.00 93 1015.8
20260507085504 20 186 0.0 0.0 0.00 0.00 0.00 93 1015.9
20260507085004 20 186 0.0 0.0 0.00 0.00 0.00 93 1015.9
20260507084533 20 186 0.0 0.0 0.00 0.00 0.00 93 1015.9
20260507084005 20 186 0.0 0.0 0.00 0.00 0.00 93 1015.7
20260507083505 20 186 0.0 0.0 0.00 0.00 0.00 92 1015.6
20260507083013 20 186 0.0 0.0 0.00 0.00 0.00 93 1015.5
20260507082504 20 186 0.0 0.0 0.00 0.00 0.00 91 1015.5
20260507082004 20 186 0.0 0.0 0.00 0.00 0.00 91 1015.5
20260507081514 20 186 0.0 0.0 0.00 0.00 0.00 91 1015.3
20260507081006 20 186 0.0 0.0 0.00 0.00 0.00 91 1015.4
20260507080506 20 186 0.0 0.0 0.00 0.00 0.00 92 1015.4
20260507075508 20 186 0.0 0.0 0.00 0.00 0.00 91 1015.5
20260507075010 20 186 0.0 0.0 0.00 0.00 0.00 91 1015.5
20260507074524 20 186 0.0 0.0 0.00 0.00 0.00 91 1015.6
20260507074005 20 186 0.0 0.0 0.00 0.00 0.00 91 1015.6
20260507073025 20 186 0.0 0.0 0.00 0.00 0.00 91 1015.8
20260507072007 20 186 0.0 0.0 0.00 0.00 0.00 90 1015.8
20260507071511 21 186 0.0 0.0 0.00 0.00 0.00 91 1015.9
20260507071005 21 186 0.0 0.0 0.00 0.00 0.00 90 1015.8
20260507070507 21 186 0.0 0.0 0.00 0.00 0.00 89 1015.7
20260507070016 21 186 0.0 0.0 0.00 0.00 0.00 89 1015.7